TimeEDT,TemperatureF,Dew PointF,Humidity,Sea Level PressureIn,VisibilityMPH,Wind Direction,Wind SpeedMPH,Gust SpeedMPH,PrecipitationIn,Events,Conditions,WindDirDegrees,DateUTC
12:16 AM,30.6,24.1,77,29.84,10.0,NNE,5.8,-,N/A,,Scattered Clouds,20,2013-03-25 04:16:00
12:36 AM,30.4,23.9,77,29.83,10.0,North,4.6,-,N/A,,Scattered Clouds,10,2013-03-25 04:36:00
12:56 AM,30.6,23.9,76,29.83,10.0,NNE,4.6,-,N/A,,Mostly Cloudy,30,2013-03-25 04:56:00
1:16 AM,30.2,23.9,77,29.82,10.0,North,5.8,-,N/A,,Scattered Clouds,360,2013-03-25 05:16:00
1:36 AM,30.9,24.3,76,29.82,10.0,NNE,5.8,-,N/A,,Scattered Clouds,20,2013-03-25 05:36:00
1:57 AM,30.7,24.6,78,29.81,10.0,NNE,8.1,-,N/A,,Scattered Clouds,20,2013-03-25 05:57:00
2:17 AM,30.9,24.8,78,29.81,10.0,NNE,4.6,-,N/A,,Mostly Cloudy,30,2013-03-25 06:17:00
2:37 AM,31.1,24.8,77,29.81,10.0,NNE,4.6,-,N/A,,Mostly Cloudy,20,2013-03-25 06:37:00
2:57 AM,30.9,24.3,76,29.81,10.0,NNE,3.5,-,N/A,,Scattered Clouds,20,2013-03-25 06:57:00
3:12 AM,30.9,24.3,76,29.81,10.0,NE,3.5,-,N/A,,Scattered Clouds,50,2013-03-25 07:12:00
3:32 AM,30.9,24.1,76,29.81,10.0,NNE,4.6,-,N/A,,Mostly Cloudy,30,2013-03-25 07:32:00
3:52 AM,31.1,23.7,74,29.81,10.0,NNE,5.8,-,N/A,,Mostly Cloudy,30,2013-03-25 07:52:00
4:12 AM,31.5,23.4,72,29.81,10.0,NNE,4.6,-,N/A,,Mostly Cloudy,30,2013-03-25 08:12:00
4:33 AM,31.6,23.2,71,29.81,10.0,NNE,6.9,-,N/A,,Overcast,30,2013-03-25 08:33:00
4:53 AM,31.6,23.4,71,29.80,10.0,NE,5.8,-,N/A,,Overcast,40,2013-03-25 08:53:00
5:13 AM,31.6,23.4,71,29.80,10.0,NNE,6.9,-,N/A,,Overcast,30,2013-03-25 09:13:00
5:33 AM,31.5,23.5,73,29.80,10.0,NE,8.1,16.1,N/A,,Overcast,50,2013-03-25 09:33:00
5:53 AM,31.1,23.0,72,29.80,10.0,North,5.8,-,N/A,,Overcast,10,2013-03-25 09:53:00
6:13 AM,31.5,23.5,73,29.80,10.0,Calm,Calm,-,N/A,,Overcast,0,2013-03-25 10:13:00
6:33 AM,31.3,23.9,74,29.80,10.0,NNE,8.1,-,N/A,,Overcast,20,2013-03-25 10:33:00
6:53 AM,30.9,23.7,75,29.80,10.0,North,5.8,-,N/A,,Mostly Cloudy,360,2013-03-25 10:53:00
7:13 AM,30.6,23.0,74,29.80,10.0,NE,5.8,-,N/A,,Scattered Clouds,50,2013-03-25 11:13:00
7:33 AM,30.2,21.9,71,29.80,10.0,North,4.6,-,N/A,,Clear,350,2013-03-25 11:33:00
7:54 AM,30.4,21.6,70,29.81,10.0,NNE,4.6,-,N/A,,Scattered Clouds,20,2013-03-25 11:54:00
8:14 AM,30.9,22.5,71,29.82,10.0,NNE,5.8,-,N/A,,Overcast,30,2013-03-25 12:14:00
8:34 AM,31.1,22.8,71,29.82,10.0,NNE,6.9,-,N/A,,Overcast,30,2013-03-25 12:34:00
8:54 AM,31.5,23.0,71,29.83,10.0,North,5.8,-,N/A,,Overcast,10,2013-03-25 12:54:00
9:14 AM,32.0,23.0,69,29.83,10.0,NNE,6.9,-,N/A,,Overcast,20,2013-03-25 13:14:00
9:34 AM,32.0,23.7,71,29.84,10.0,North,3.5,-,N/A,,Overcast,10,2013-03-25 13:34:00
9:54 AM,32.4,24.3,72,29.84,10.0,NNE,4.6,-,N/A,,Mostly Cloudy,20,2013-03-25 13:54:00
10:14 AM,32.0,24.4,74,29.85,10.0,NNE,6.9,18.4,N/A,,Mostly Cloudy,20,2013-03-25 14:14:00
10:34 AM,32.0,24.3,73,29.85,10.0,NNE,6.9,-,N/A,,Mostly Cloudy,20,2013-03-25 14:34:00
10:55 AM,32.0,24.3,73,29.85,10.0,NNE,8.1,17.3,N/A,,Overcast,30,2013-03-25 14:55:00
11:15 AM,32.0,25.3,76,29.86,10.0,North,6.9,-,N/A,,Overcast,10,2013-03-25 15:15:00
11:35 AM,31.6,25.9,79,29.87,4.0,North,8.1,-,N/A,,Haze,10,2013-03-25 15:35:00
11:55 AM,32.2,24.8,74,29.87,10.0,North,10.4,18.4,N/A,,Overcast,10,2013-03-25 15:55:00
12:15 PM,32.4,24.8,74,29.87,10.0,NNE,10.4,17.3,N/A,,Overcast,20,2013-03-25 16:15:00
12:35 PM,32.9,24.6,72,29.87,10.0,North,10.4,-,N/A,,Overcast,360,2013-03-25 16:35:00
12:55 PM,32.5,24.3,72,29.88,10.0,North,11.5,20.7,N/A,,Overcast,360,2013-03-25 16:55:00
1:16 PM,32.5,25.5,75,29.88,10.0,North,9.2,19.6,N/A,,Overcast,350,2013-03-25 17:16:00
1:36 PM,32.2,25.7,77,29.88,7.0,North,9.2,17.3,N/A,,Overcast,10,2013-03-25 17:36:00
1:56 PM,32.2,25.5,76,29.88,10.0,North,6.9,-,N/A,,Overcast,360,2013-03-25 17:56:00
2:16 PM,33.8,25.0,70,29.88,10.0,North,10.4,20.7,N/A,,Mostly Cloudy,360,2013-03-25 18:16:00
2:36 PM,33.4,25.3,72,29.88,10.0,North,12.7,23.0,N/A,,Overcast,10,2013-03-25 18:36:00
2:56 PM,33.8,24.8,70,29.88,10.0,North,12.7,18.4,N/A,,Overcast,360,2013-03-25 18:56:00
3:16 PM,34.5,25.0,68,29.88,10.0,NNE,12.7,18.4,N/A,,Overcast,20,2013-03-25 19:16:00
3:36 PM,34.7,25.7,70,29.89,10.0,North,8.1,17.3,N/A,,Overcast,360,2013-03-25 19:36:00
3:57 PM,34.7,25.9,70,29.89,10.0,North,11.5,17.3,N/A,,Overcast,360,2013-03-25 19:57:00
4:17 PM,34.7,25.5,69,29.89,10.0,North,10.4,19.6,N/A,,Overcast,10,2013-03-25 20:17:00
4:37 PM,35.1,24.8,66,29.89,10.0,North,10.4,16.1,N/A,,Overcast,350,2013-03-25 20:37:00
4:57 PM,35.1,25.3,68,29.90,10.0,North,12.7,18.4,N/A,,Overcast,360,2013-03-25 20:57:00
5:12 PM,35.2,24.8,66,29.90,10.0,North,13.8,20.7,N/A,,Overcast,360,2013-03-25 21:12:00
5:32 PM,35.6,25.3,66,29.91,10.0,North,10.4,17.3,N/A,,Mostly Cloudy,360,2013-03-25 21:32:00
5:52 PM,35.8,25.2,65,29.91,10.0,North,13.8,17.3,N/A,,Overcast,350,2013-03-25 21:52:00
6:12 PM,35.6,25.7,67,29.92,10.0,North,10.4,19.6,N/A,,Overcast,360,2013-03-25 22:12:00
6:32 PM,35.6,25.5,67,29.93,10.0,NNW,10.4,-,N/A,,Mostly Cloudy,340,2013-03-25 22:32:00
6:53 PM,35.6,25.7,67,29.93,10.0,North,8.1,-,N/A,,Overcast,350,2013-03-25 22:53:00
7:13 PM,35.2,25.7,68,29.94,10.0,North,9.2,17.3,N/A,,Overcast,350,2013-03-25 23:13:00
7:33 PM,35.1,26.2,70,29.95,10.0,North,6.9,-,N/A,,Overcast,350,2013-03-25 23:33:00
7:53 PM,35.1,26.6,71,29.96,10.0,North,6.9,16.1,N/A,,Overcast,360,2013-03-25 23:53:00
8:13 PM,34.7,27.5,75,29.97,10.0,North,8.1,17.3,N/A,,Overcast,350,2013-03-26 00:13:00
8:33 PM,34.2,27.5,77,29.98,7.0,North,9.2,18.4,N/A,Snow,Light Snow,350,2013-03-26 00:33:00
8:53 PM,33.8,27.9,79,29.98,7.0,North,8.1,-,N/A,Snow,Light Snow,350,2013-03-26 00:53:00
9:13 PM,33.8,27.5,78,29.99,10.0,North,11.5,16.1,N/A,,Overcast,360,2013-03-26 01:13:00
9:33 PM,33.8,27.1,77,30.00,10.0,North,11.5,20.7,N/A,Snow,Light Snow,350,2013-03-26 01:33:00
9:54 PM,33.4,27.0,77,30.01,10.0,North,9.2,17.3,N/A,Snow,Light Snow,360,2013-03-26 01:54:00
10:14 PM,33.8,27.3,77,30.01,10.0,North,8.1,-,N/A,Snow,Light Snow,350,2013-03-26 02:14:00
10:34 PM,33.6,27.3,78,30.01,10.0,North,10.4,16.1,N/A,,Overcast,350,2013-03-26 02:34:00
10:54 PM,33.8,25.9,73,30.02,10.0,North,11.5,18.4,N/A,,Overcast,360,2013-03-26 02:54:00
11:14 PM,33.4,25.9,74,30.02,10.0,NNW,6.9,16.1,N/A,,Overcast,340,2013-03-26 03:14:00
11:34 PM,33.1,26.4,77,30.02,10.0,North,9.2,-,N/A,,Overcast,350,2013-03-26 03:34:00
11:54 PM,32.9,26.6,78,30.02,10.0,North,12.7,16.1,N/A,,Overcast,350,2013-03-26 03:54:00